Granite Falls, MN

4:04 PM CST on January 19, 2017 (GMT -0600)
Granite Falls

Weather History for KGDB - October, 2012

Change the Weather History Date:

Wednesday, October 24, 2012

  Actual Average (KMVE) Record (KMVE)
Temperature  
Mean Temperature 48 °F -  
Max Temperature 56 °F 57 °F 81 °F (1989)
Min Temperature 39 °F 34 °F 19 °F (1960)
Degree Days  
Heating Degree Days 18    
Moisture  
Dew Point 43 °F    
Average Humidity 86    
Maximum Humidity 95    
Minimum Humidity 72    
Precipitation  
Precipitation 0.00 in - - ()
Sea Level Pressure  
Sea Level Pressure 29.87 in    
Wind  
Wind Speed 11 mph (NW)    
Max Wind Speed 18 mph    
Max Gust Speed 29 mph    
Visibility 10 miles    
Events      
Averages and records for this station are not official NWS values.
T = Trace of Precipitation, MM = Missing Value Source: NWS Daily Summary

Daily Weather History Graph

Daily Weather History Graph

Search for Another Location

Airport or City:

Trip Planner

Search our weather history database for the weather conditions in past years. The results will help you decide how hot, cold, wet, or windy it might be!

Date:

Astronomy

Oct. 24, 2012 Rise Set
Actual Time 7:50 AM CDT 6:21 PM CDT
Civil Twilight 7:20 AM CDT 6:51 PM CDT
Nautical Twilight 6:45 AM CDT 7:25 PM CDT
Astronomical Twilight 6:12 AM CDT 7:59 PM CDT
Moon 3:48 PM CDT (10/24) 2:34 AM CDT (10/24)
Length of Visible Light 11h 31m
Length of Day
10h 31m
Waxing Gibbous, 76% of the Moon is Illuminated
Oct 24
Waxing Gibbous
Oct 29
Full
Nov 6
Last Quarter
Nov 13
New
Nov 20
First Quarter

Hourly Weather History & Observations

Time (CDT) Temp. Windchill Dew Point Humidity Pressure Visibility Wind Dir Wind Speed Gust Speed Precip Events Conditions
12:12 AM 56.3 °F - 53.6 °F 91% 29.82 in 10.0 mi SW 9.2 mph - N/A   Overcast
12:32 AM 56.3 °F - 53.6 °F 91% 29.82 in 10.0 mi SW 6.9 mph - N/A   Overcast
12:52 AM 55.8 °F - 53.4 °F 92% 29.82 in 10.0 mi WSW 6.9 mph - N/A   Overcast
1:12 AM 55.6 °F - 53.8 °F 94% 29.83 in 10.0 mi West 6.9 mph - N/A   Overcast
1:32 AM 55.4 °F - 53.6 °F 94% 29.84 in 10.0 mi West 9.2 mph - N/A   Overcast
1:52 AM 55.6 °F - 53.4 °F 92% 29.83 in 10.0 mi West 6.9 mph - N/A   Overcast
2:12 AM 55.6 °F - 52.9 °F 91% 29.83 in 10.0 mi WNW 11.5 mph - N/A   Overcast
2:32 AM 54.5 °F - 52.2 °F 92% 29.84 in 10.0 mi WNW 10.4 mph - N/A   Overcast
2:52 AM 54.1 °F - 51.4 °F 91% 29.86 in 10.0 mi NW 13.8 mph - N/A   Overcast
3:12 AM 53.2 °F - 49.3 °F 86% 29.86 in 10.0 mi WNW 15.0 mph - N/A   Overcast
3:32 AM 52.3 °F - 48.4 °F 86% 29.86 in 10.0 mi NW 11.5 mph 17.3 mph N/A   Overcast
3:52 AM 51.3 °F - 48.2 °F 89% 29.85 in 10.0 mi NW 10.4 mph - N/A   Overcast
4:12 AM 50.4 °F - 47.3 °F 89% 29.86 in 10.0 mi NW 8.1 mph - N/A   Overcast
4:32 AM 49.6 °F - 47.3 °F 92% 29.86 in 10.0 mi NW 12.7 mph - N/A   Overcast
4:52 AM 49.3 °F - 47.3 °F 93% 29.87 in 10.0 mi NW 6.9 mph 17.3 mph N/A   Overcast
5:12 AM 49.1 °F - 47.3 °F 93% 29.87 in 10.0 mi NNW 11.5 mph - N/A   Overcast
5:32 AM 49.3 °F - 47.5 °F 94% 29.87 in 10.0 mi NW 8.1 mph - N/A   Overcast
5:52 AM 49.5 °F - 47.5 °F 93% 29.86 in 10.0 mi NW 9.2 mph - N/A   Overcast
6:12 AM 49.1 °F - 47.3 °F 93% 29.88 in 7.0 mi NW 5.8 mph - N/A   Overcast
6:32 AM 48.7 °F - 46.9 °F 93% 29.90 in 7.0 mi WNW 10.4 mph - N/A   Overcast
6:52 AM 46.6 °F - 45.0 °F 94% 29.91 in 10.0 mi NW 12.7 mph - N/A   Mostly Cloudy
7:12 AM 45.5 °F 40.8 °F 44.2 °F 95% 29.90 in 7.0 mi NW 9.2 mph - N/A   Scattered Clouds
7:32 AM 45.9 °F 40.4 °F 43.7 °F 92% 29.91 in 10.0 mi NW 11.5 mph - N/A   Mostly Cloudy
7:52 AM 45.9 °F 40.0 °F 43.3 °F 91% 29.90 in 10.0 mi NNW 12.7 mph 18.4 mph N/A   Scattered Clouds
8:12 AM 45.7 °F 39.8 °F 43.2 °F 91% 29.91 in 10.0 mi NNW 12.7 mph - N/A   Scattered Clouds
8:52 AM 47.3 °F - 44.2 °F 89% 29.90 in 7.0 mi NNW 15.0 mph - N/A   Overcast
9:12 AM 47.3 °F - 44.2 °F 89% 29.90 in 7.0 mi NNW 12.7 mph - N/A   Overcast
9:32 AM 47.3 °F - 44.4 °F 90% 29.90 in 7.0 mi NNW 11.5 mph - N/A   Overcast
9:52 AM 47.3 °F - 44.8 °F 91% 29.89 in 7.0 mi NNW 13.8 mph - N/A   Overcast
10:12 AM 46.4 °F 42.4 °F 43.7 °F 90% 29.91 in 7.0 mi NNW 8.1 mph 18.4 mph N/A   Overcast
10:32 AM 46.4 °F 40.7 °F 43.3 °F 89% 29.91 in 7.0 mi NNW 12.7 mph - N/A   Overcast
11:12 AM 46.4 °F 41.5 °F 43.2 °F 88% 29.92 in 7.0 mi NW 10.4 mph - N/A   Overcast
11:32 AM 47.3 °F - 43.3 °F 86% 29.92 in 7.0 mi NW 10.4 mph - N/A   Overcast
11:52 AM 47.1 °F - 43.5 °F 87% 29.90 in 7.0 mi NW 11.5 mph - N/A   Overcast
12:11 PM 46.8 °F - 42.8 °F 86% 29.88 in 10.0 mi NNW 16.1 mph - N/A   Overcast
12:32 PM 46.8 °F - 42.3 °F 84% 29.87 in 10.0 mi NW 13.8 mph 20.7 mph N/A   Overcast
12:52 PM 47.3 °F - 42.1 °F 82% 29.87 in 10.0 mi NNW 10.4 mph 19.6 mph N/A   Overcast
1:12 PM 47.3 °F - 41.7 °F 81% 29.87 in 10.0 mi NW 12.7 mph 18.4 mph N/A   Overcast
1:32 PM 47.3 °F - 41.7 °F 81% 29.86 in 10.0 mi NW 15.0 mph 18.4 mph N/A   Overcast
1:52 PM 47.3 °F - 41.5 °F 80% 29.86 in 10.0 mi NW 16.1 mph 23.0 mph N/A   Overcast
2:12 PM 47.3 °F - 41.2 °F 79% 29.86 in 10.0 mi NW 16.1 mph 24.2 mph N/A   Overcast
2:32 PM 47.3 °F - 41.4 °F 80% 29.86 in 10.0 mi NNW 15.0 mph 21.9 mph N/A   Overcast
2:52 PM 47.3 °F - 41.2 °F 79% 29.86 in 10.0 mi NNW 11.5 mph 19.6 mph N/A   Overcast
3:12 PM 47.3 °F - 40.3 °F 77% 29.87 in 10.0 mi NNW 17.3 mph - N/A   Overcast
3:32 PM 47.3 °F - 39.2 °F 73% 29.86 in 10.0 mi NNW 17.3 mph 25.3 mph N/A   Overcast
3:52 PM 47.3 °F - 39.2 °F 73% 29.86 in 10.0 mi NW 12.7 mph 24.2 mph N/A   Overcast
4:12 PM 47.1 °F - 39.2 °F 74% 29.86 in 10.0 mi NW 12.7 mph 20.7 mph N/A   Overcast
4:32 PM 47.1 °F - 39.0 °F 73% 29.86 in 10.0 mi NW 17.3 mph 21.9 mph N/A   Overcast
4:52 PM 46.9 °F - 38.3 °F 72% 29.86 in 10.0 mi NNW 13.8 mph 19.6 mph N/A   Overcast
5:31 PM 45.5 °F 38.6 °F 38.3 °F 76% 29.86 in 10.0 mi NNW 16.1 mph 21.9 mph N/A   Overcast
5:52 PM 44.6 °F 38.1 °F 38.3 °F 79% 29.85 in 10.0 mi NNW 13.8 mph 24.2 mph N/A   Overcast
6:11 PM 44.6 °F 38.4 °F 38.1 °F 78% 29.86 in 10.0 mi NNW 12.7 mph 18.4 mph N/A   Overcast
6:32 PM 44.4 °F 38.2 °F 38.1 °F 79% 29.86 in 10.0 mi NNW 12.7 mph - N/A   Overcast
6:52 PM 44.1 °F 37.4 °F 38.1 °F 80% 29.86 in 10.0 mi NNW 13.8 mph 23.0 mph N/A   Overcast
7:32 PM 43.2 °F 36.2 °F 38.3 °F 83% 29.87 in 10.0 mi NW 13.8 mph 19.6 mph N/A   Overcast
8:12 PM 42.4 °F 34.7 °F 38.1 °F 85% 29.89 in 10.0 mi NW 16.1 mph - N/A   Overcast
8:32 PM 41.9 °F 33.4 °F 37.8 °F 85% 29.90 in 10.0 mi NW 18.4 mph - N/A   Overcast
8:52 PM 41.9 °F 33.7 °F 38.1 °F 86% 29.89 in 10.0 mi NW 17.3 mph 21.9 mph N/A   Drizzle
9:12 PM 41.0 °F 32.5 °F 37.9 °F 89% 29.90 in 10.0 mi NW 17.3 mph 21.9 mph N/A   Overcast
9:52 PM 41.0 °F 32.5 °F 37.8 °F 88% 29.91 in 10.0 mi NW 17.3 mph - N/A   Overcast
10:12 PM 40.8 °F 32.3 °F 37.4 °F 88% 29.91 in 10.0 mi NW 17.3 mph 23.0 mph N/A   Overcast
10:32 PM 40.5 °F 32.1 °F 37.0 °F 88% 29.90 in 10.0 mi NW 16.1 mph 25.3 mph N/A   Overcast
10:52 PM 40.3 °F 32.2 °F 36.9 °F 88% 29.90 in 10.0 mi NW 15.0 mph 25.3 mph N/A   Overcast
11:12 PM 40.1 °F 31.6 °F 36.7 °F 88% 29.91 in 10.0 mi NW 16.1 mph 24.2 mph N/A   Overcast
11:32 PM 39.2 °F 31.2 °F 36.0 °F 88% 29.89 in 10.0 mi NW 13.8 mph 28.8 mph N/A   Overcast
11:52 PM 39.2 °F 29.8 °F 35.8 °F 88% 29.89 in 10.0 mi NW 18.4 mph 23.0 mph N/A   Overcast